Location: Unspecified
(0.0000°N, 0.0000°E)
Time: 23:58:13
(UTC+00:00)

Envisat - Pass Details

Date: 17 July 2019
Orbit: 764 x 766 km, 98.1° (Epoch: 18 November)

Event Time Altitude Azimuth Distance (km) Brightness Sun altitude
Rises 19:22:37 0° 187° (S) 3,231 6.1 -17.8°
Reaches altitude 10° 19:25:10 10° 197° (SSW) 2,302 5.4 -18.4°
Maximum altitude 19:29:35 31° 258° (WSW) 1,331 4.8 -19.4°
Drops below altitude 10° 19:33:59 10° 319° (NW) 2,293 6.4 -20.4°
Sets 19:36:31 0° 329° (NNW) 3,216 7.1 -21.0°
